Flag Weather past 2 weeks in Minsk, Belarus

Now
23 °F

Ice fog.


Feels Like: 16 °F
Forecast: 15 / 24 °F
Wind: 6 mph from South

Location: Minsk

Current Time: Nov 26, 2014 at 12:05:45 AM

Latest Report: Nov 25, 2014 at 11:30 PM


Visibility: 2 mi

Pressure: 30.48 "Hg

Humidity: 100%

Dew point: 23 °F

Location of MinskLocation

Historic Weather in Minsk — Graph

°F

Minsk temperature yesterday

Maximum temperature yesterday: 27 °F (at 6:30 AM)
Minimum temperature yesterday: 23 °F (at 10:01 PM)
Average temperature yesterday: 25 °F

Past Weeks' High & Low Weather Summary

 TemperatureHumidityPressure
High43 °F (Nov 10, 11:00 PM)100% (Nov 11, 6:30 PM)30.57 "Hg (Nov 11, 6:30 PM)
Low14 °F (Nov 24, 6:30 AM)59% (Nov 18, 3:00 PM)30.15 "Hg (Nov 12, 4:30 AM)
Average32 °F89%30.32 "Hg
* Reported Nov 10 11:00 PM — Nov 25 11:00 PM, Minsk, Weather by CustomWeather, © 2014

Note: Actual official high and low records may vary slightly from our data, if they occured in-between our weather recording intervals... More about our weather records

Advertising

Minsk weather history for previous 24 hours

 ConditionsComfort  
Time TempWeatherWind HumidityBarometerVisibility
11:00 PM
Nov 25
23 °FIce fog.6 mph100%30.45 "Hg2 mi
10:30 PM23 °FIce fog.8 mph100%30.45 "Hg2 mi
10:01 PM23 °FIce fog.8 mph100%30.45 "Hg2 mi
9:30 PM25 °FIce fog.8 mph93%30.45 "Hg2 mi
9:00 PM25 °FIce fog.8 mph93%30.45 "Hg2 mi
8:30 PM25 °FIce fog.6 mph93%30.45 "Hg2 mi
8:00 PM25 °FIce fog.6 mph93%30.45 "Hg2 mi
7:30 PM25 °FIce fog.8 mph93%30.45 "Hg2 mi
7:00 PM25 °FIce fog.6 mph93%30.45 "Hg2 mi
6:30 PM25 °FIce fog.8 mph93%30.45 "Hg2 mi
6:01 PM25 °FIce fog.8 mph93%30.45 "Hg2 mi
5:30 PM25 °FIce fog.6 mph93%30.45 "Hg3 mi
5:00 PM25 °FIce fog.6 mph93%30.45 "Hg3 mi
4:30 PM27 °FIce fog.6 mph86%30.45 "Hg3 mi
4:00 PM27 °FIce fog.6 mph86%30.45 "Hg3 mi
3:30 PM27 °FIce fog.6 mph80%30.45 "Hg3 mi
3:00 PM27 °FIce fog.6 mph80%30.45 "Hg3 mi
2:30 PM27 °FIce fog.8 mph80%30.45 "Hg3 mi
2:00 PM27 °FIce fog.10 mph86%30.45 "Hg3 mi
1:30 PM25 °FIce fog.8 mph93%30.45 "Hg2 mi
1:00 PM25 °FIce fog.8 mph100%30.45 "Hg2 mi
12:30 PM25 °FIce fog.10 mph100%30.45 "Hg2 mi
12:00 PM27 °FIce fog.8 mph93%30.45 "Hg2 mi
11:30 AM27 °FIce fog.8 mph93%30.45 "Hg2 mi
11:00 AM25 °FIce fog.8 mph100%30.45 "Hg2 mi
10:30 AM25 °FIce fog.8 mph100%30.45 "Hg2 mi
10:00 AM25 °FIce fog.8 mph100%30.45 "Hg2 mi
9:30 AM25 °FIce fog.6 mph100%30.45 "Hg2 mi
9:00 AM25 °FIce fog.10 mph100%30.45 "Hg2 mi
8:30 AM25 °FIce fog.8 mph100%30.45 "Hg2 mi
8:00 AM25 °FIce fog.8 mph100%30.45 "Hg2 mi
7:30 AM25 °FIce fog.10 mph100%30.45 "Hg2 mi
7:00 AM25 °FIce fog.10 mph100%30.45 "Hg2 mi
6:30 AM27 °FIce fog.10 mph93%30.45 "Hg2 mi
6:00 AM25 °FIce fog.8 mph100%30.45 "Hg2 mi
5:30 AM25 °FIce fog.8 mph100%30.45 "Hg2 mi
5:00 AM25 °FIce fog.8 mph100%30.48 "Hg2 mi
4:30 AM25 °FIce fog.10 mph100%30.48 "Hg2 mi
4:00 AM25 °FIce fog.10 mph100%30.48 "Hg2 mi
3:30 AM25 °FIce fog.8 mph100%30.48 "Hg3 mi
2:30 AM25 °FIce fog.10 mph100%30.51 "Hg3 mi
2:00 AM25 °FIce fog.8 mph100%30.51 "Hg3 mi
1:30 AM25 °FIce fog.10 mph100%30.51 "Hg3 mi
1:00 AM25 °FIce fog.8 mph100%30.51 "Hg3 mi
12:30 AM25 °FLow clouds.8 mph93%30.51 "Hg4 mi
12:00 AM25 °FIce fog.10 mph93%30.51 "Hg3 mi
Weather by CustomWeather, © 2014

See weather overviewHow to use our weather pages